Regional Weather Roundup
Issued by NWS

Home | Current Version | Previous Version | Graphics & Text | Print | Product List | Glossary On
Versions: 1 2 3 4 5 6 7 8 9 10 11 12 13 14 15 16 17 18 19 20 21 22 23 24 25 26 27 28 29 30 31 32 33 34 35 36 37 38 39 40 41 42 43 44 45 46 47 48 49 50
000
ASUS43 KDMX 232101
RWRIA

WEATHER ROUNDUP FOR IOWA
NATIONAL WEATHER SERVICE DES MOINES IA
400 PM CDT SUN JUL 23 2017

NOTE: "FAIR" INDICATES FEW OR NO CLOUDS BELOW 12,000 FEET WITH NO
SIGNIFICANT WEATHER AND/OR OBSTRUCTIONS TO VISIBILITY.

* - THESE STATIONS ARE NOT NWS STATIONS...THUS NOT UNDER NWS
QUALITY CONTROL.  THEY ALSO DO NOT REPORT WEATHER SUCH
AS PRECIPITATION OR FOG.

IAZ001>003-012>014-020>022-031>034-043>046-232200-
   NORTHWEST IOWA

CITY           SKY/WX    TMP DP  RH WIND       PRES   REMARKS
CARROLL *      SUNNY     82  64  54 NW10G16   29.95S HX  84
CHEROKEE *     MOSUNNY   80  59  47 N12       29.97S HX  81
DENISON *      SUNNY     82  63  51 N15       29.98S HX  83
ORANGE CITY *  SUNNY     79  61  53 N9        29.99S HX  80
SHELDON *      MOSUNNY   79  61  53 NW13      29.97S HX  80
SIOUX CITY     SUNNY     85  60  42 NW14G21   29.96S HX  85
SPENCER        MOSUNNY   81  60  48 N17G25    29.98R HX  82
STORM LAKE *   MOSUNNY   79  59  50 NW12G20   29.98S HX  80
$$

IAZ055>058-069>071-079>083-090>094-232200-
   SOUTHWEST IOWA

CITY           SKY/WX    TMP DP  RH WIND       PRES   REMARKS
ATLANTIC *     SUNNY     84  63  48 N12G17    29.94F HX  85
AUDUBON *      SUNNY     84  61  45 NW13      29.97S HX  84
CLARINDA *     SUNNY     88  72  58 N15       29.94S HX  94
COUNCIL BLFS * SUNNY     86  66  51 N10G16    29.95S HX  88
CRESTON *      SUNNY     90  61  37 NW14      29.94S HX  89
HARLAN  *      SUNNY     84  63  48 N12       29.99S HX  85
LAMONI         SUNNY     92  66  42 NW13      29.90F HX  94
RED OAK *      SUNNY     86  66  51 N13       29.94S HX  88
SHENANDOAH *   SUNNY     88  72  58 N9        29.93S HX  94
$$

IAZ047>049-059>061-072>074-084-232200-
   CENTRAL IOWA

CITY           SKY/WX    TMP DP  RH WIND       PRES   REMARKS
AMES           MOSUNNY   82  65  56 NW15      29.92S HX  84
ANKENY *       SUNNY     84  61  45 N13G20    29.92F HX  84
BOONE *        SUNNY     82  63  51 NW13G23   29.93S HX  83
CHARITON *     SUNNY     90  59  35 N15       29.90S HX  89
DES MOINES     MOSUNNY   87  61  41 N16G23    29.90S HX  87
GRINNELL*      SUNNY     80  65  60 NW13G18   29.92S HX  82
KNOXVILLE *    SUNNY     86  61  42 N12G17    29.89S HX  86
MARSHALLTOWN   MOSUNNY   82  64  54 NW14      29.91S HX  83
NEWTON *       SUNNY     82  64  54 N14G24    29.91S HX  84
PELLA *        SUNNY     87  60  40 N12G17    29.91S HX  86
$$

IAZ004>006-015-016-023>025-035-036-232200-
   NORTH CENTRAL IOWA

CITY           SKY/WX    TMP DP  RH WIND       PRES   REMARKS
ALGONA *       MOSUNNY   77  59  53 N14G21    29.97S
CLARION *      MOSUNNY   77  63  61 NW14G21   29.95S
ESTHERVILLE    SUNNY     75  60  59 N16       29.98R
FORT DODGE *   MOSUNNY   81  61  50 N10       29.96S HX  81
MASON CITY     PTSUNNY   76  61  59 N15G22    29.96R
FOREST CITY *  PTSUNNY   75  59  57 N14G24    29.96R
WEBSTER CITY * MOSUNNY   79  59  50 NW10G21   29.93S HX  80
IOWA FALLS *     N/A     80  62  54 NW13      29.94S HX  81
$$

IAZ007>011-017>019-026>030-037>042-050>054-066-232200-
   NORTHEAST IOWA

CITY           SKY/WX    TMP DP  RH WIND       PRES   REMARKS
CEDAR RAPIDS   SUNNY     82  64  54 NW21      29.87R HX  83
CHARLES CITY * PTSUNNY   77  61  57 NW13      29.93S
DECORAH *      CLOUDY    75  61  60 NW12G20   29.89S
DUBUQUE        MOSUNNY   81  63  54 N17       29.85R HX  82
MONTICELLO *   MOSUNNY   82  63  51 NW15G23   29.86R HX  83
OELWEIN *        N/A    N/A N/A N/A MISG        N/A
WATERLOO       MOSUNNY   78  61  55 NW17      29.89S HX  80
$$

IAZ064-065-067-068-078-232200-
   EAST CENTRAL IOWA

CITY           SKY/WX    TMP DP  RH WIND       PRES   REMARKS
DAVENPORT      SUNNY     84  64  50 NW20G28   29.85R HX  85
IOWA CITY      SUNNY     85  63  47 NW18      29.87S HX  86
MUSCATINE *    SUNNY     86  68  54 NW10G17   29.85S HX  89
QUAD CITIES    SUNNY     87  64  46 W16G25    29.82R HX  88
$$

IAZ062-063-075>077-085>089-095>099-232200-
   SOUTHEAST IOWA

CITY           SKY/WX    TMP DP  RH WIND       PRES   REMARKS
BURLINGTON     SUNNY     90  70  51 NW9       29.84S HX  95
FAIRFIELD *    SUNNY     88  61  40 NW15G22   29.87S HX  88
FORT MADISON * SUNNY     90  70  51 NW9       29.85F HX  95
KEOKUK *       SUNNY     93  66  40 NW9       29.84S HX  96
OSKALOOSA *      N/A     87  63  45 NW10      29.89S HX  88
OTTUMWA        SUNNY     91  57  31 NW17G24   29.88S HX  89
WASHINGTON *   SUNNY     84  68  58 NW14      29.88R HX  87
$$

ABBREVIATIONS USED IN REMARKS
   TC - TEMPERATURES IN CELSIUS
  WCI - WIND CHILL INDEX
   HX - HEAT INDEX
  VSB - VISIBILITY
$$




USA.gov is the U.S. government's official web portal to all federal, state and local government web resources and services.